(°C)
26°
25°
23°
23°
22°
22°
22°
(°C)
24°
23°
23°
22°
22°
22°
23°
D
D
D
D
DKD
DKD
DKD
(km/saat)
18-33
16-30
14-25
12-20
10-17
8-14
7-12
(mm)
0
0
0
0
0
0
0
(%)
1
1
0
0
0
0
0

Güneşin açısı

/ 22.1°
sun-icon
UV 7
07:27
18:52
Dolunay (177°)
19:07
07:23

Orlando (KORL) için METAR

Zaman Koşullar Sıcaklık/
Çiy noktası
Rüzgar Görünürlük Hava Bulutlar Basınç Değiştir Ham
VFR 27.2°C / 17.8°C 80º 10kt >10km - Few Clouds 4300ft 1021 - KORL 202053Z 08010KT 10SM FEW043 27/18 A3016 RMK AO2 SLP218 T02720178 55012
VFR 27.2°C / 17.8°C 90º 9kt >10km - Scattered Clouds 6000ft 1021 - KORL 201953Z 09009KT 10SM SCT060 27/18 A3016 RMK AO2 SLP217 T02720178
VFR 28.3°C / 16.7°C 40º 9kt >10km - Broken Clouds 6000ft 1022 - KORL 201853Z 04009KT 10SM BKN060 28/17 A3018 RMK AO2 SLP222 T02830167
VFR 28.9°C / 16.7°C 70º 9kt >10km - Scattered Clouds 5000ft
Broken Clouds 6000ft
1023 - KORL 201753Z 07009KT 10SM SCT050 BKN060 29/17 A3020 RMK AO2 SLP230 T02890167 10289 20189 58014
VFR 28.3°C / 16.7°C 90º 8kt >10km - Broken Clouds 5000ft 1023 - KORL 201653Z 09008KT 10SM BKN050 28/17 A3022 RMK AO2 SLP238 T02830167
VFR 27.2°C / 16.1°C 80º 11kt >10km - Few Clouds 4800ft 1024 - KORL 201553Z 08011KT 10SM FEW048 27/16 A3024 RMK AO2 SLP243 T02720161
VFR 26.1°C / 15.6°C 100º 9kt >10km - Clear 1024 - KORL 201453Z 10009KT 10SM CLR 26/16 A3024 RMK AO2 SLP244 T02610156 51012
VFR 25°C / 17.2°C 80º 6kt >10km - Clear 1024 - KORL 201353Z 08006KT 10SM CLR 25/17 A3023 RMK AO2 SLP240 T02500172
VFR 21.7°C / 17.8°C 70º 3kt >10km - Clear 1023 - KORL 201253Z 07003KT 10SM CLR 22/18 A3022 RMK AO2 SLP237 T02170178
VFR 18.3°C / 16.7°C 40º 3kt >10km - Clear 1023 - KORL 201153Z 04003KT 10SM CLR 18/17 A3021 RMK AO2 SLP231 T01830167 10206 20172 53013
VFR 19.4°C / 16.7°C 20º 3kt >10km - Clear 1022 - KORL 201053Z 02003KT 10SM CLR 19/17 A3019 RMK AO2 SLP226 T01940167
VFR 17.8°C / 16.1°C variable 0kt >10km - Clear 1022 - KORL 200953Z AUTO 00000KT 10SM CLR 18/16 A3017 RMK AO2 SLP221 T01780161
VFR 18.3°C / 16.1°C variable 0kt >10km - Clear 1021 - KORL 200853Z AUTO 00000KT 10SM CLR 18/16 A3017 RMK AO2 SLP219 T01830161 56008
VFR 19.4°C / 15.6°C 30º 3kt >10km - Clear 1021 - KORL 200753Z AUTO 03003KT 10SM CLR 19/16 A3017 RMK AO2 SLP219 T01940156
VFR 20°C / 15.6°C 60º 4kt >10km - Clear 1022 - KORL 200653Z AUTO 06004KT 10SM CLR 20/16 A3018 RMK AO2 SLP222 T02000156
VFR 20.6°C / 15.6°C 50º 4kt >10km - Clear 1022 - KORL 200553Z AUTO 05004KT 10SM CLR 21/16 A3019 RMK AO2 SLP227 T02060156 10228 20200 58004
VFR 20.6°C / 16.1°C variable 0kt >10km - Few Clouds 5000ft 1023 - KORL 200453Z AUTO 00000KT 10SM FEW050 21/16 A3020 RMK AO2 SLP231 T02060161 402780189
VFR 21.1°C / 16.7°C 30º 3kt >10km - Clear 1023 - KORL 200353Z AUTO 03003KT 10SM CLR 21/17 A3021 RMK AO2 SLP234 T02110167
VFR 20.6°C / 16.1°C 50º 5kt >10km - Few Clouds 4600ft 1023 - KORL 200253Z AUTO 05005KT 10SM FEW046 21/16 A3020 RMK AO2 SLP231 T02060161 51012
VFR 20.6°C / 15.6°C 60º 5kt >10km - Clear 1022 - KORL 200153Z 06005KT 10SM CLR 21/16 A3020 RMK AO2 SLP228 T02060156
VFR 21.7°C / 15.6°C 60º 5kt >10km - Clear 1022 - KORL 200053Z 06005KT 10SM CLR 22/16 A3019 RMK AO2 SLP225 T02170156
VFR 22.8°C / 15.6°C 70º 7kt >10km - Clear 1021 - KORL 192353Z 07007KT 10SM CLR 23/16 A3017 RMK AO2 SLP219 T02280156 10278 20228 53013
VFR 23.9°C / 15.6°C 70º 9kt >10km - Clear 1021 - KORL 192253Z 07009KT 10SM CLR 24/16 A3015 RMK AO2 SLP212 T02390156
VFR 25°C / 15.6°C 70º 12kt >10km - Few Clouds 4800ft 1020 - KORL 192153Z 07012KT 10SM FEW048 25/16 A3013 RMK AO2 SLP207 T02500156

VFR

27.2°C / 17.8°C

[Daha fazla]
Rüzgar 80º 10kt
Görünürlük >10km
Hava -
Bulutlar Few Clouds 4300ft
Basınç 1021
Değiştir -
Ham KORL 202053Z 08010KT 10SM FEW043 27/18 A3016 RMK AO2 SLP218 T02720178 55012

VFR

27.2°C / 17.8°C

[Daha fazla]
Rüzgar 90º 9kt
Görünürlük >10km
Hava -
Bulutlar Scattered Clouds 6000ft
Basınç 1021
Değiştir -
Ham KORL 201953Z 09009KT 10SM SCT060 27/18 A3016 RMK AO2 SLP217 T02720178

VFR

28.3°C / 16.7°C

[Daha fazla]
Rüzgar 40º 9kt
Görünürlük >10km
Hava -
Bulutlar Broken Clouds 6000ft
Basınç 1022
Değiştir -
Ham KORL 201853Z 04009KT 10SM BKN060 28/17 A3018 RMK AO2 SLP222 T02830167

VFR

28.9°C / 16.7°C

[Daha fazla]
Rüzgar 70º 9kt
Görünürlük >10km
Hava -
Bulutlar Scattered Clouds 5000ft
Broken Clouds 6000ft
Basınç 1023
Değiştir -
Ham KORL 201753Z 07009KT 10SM SCT050 BKN060 29/17 A3020 RMK AO2 SLP230 T02890167 10289 20189 58014

VFR

28.3°C / 16.7°C

[Daha fazla]
Rüzgar 90º 8kt
Görünürlük >10km
Hava -
Bulutlar Broken Clouds 5000ft
Basınç 1023
Değiştir -
Ham KORL 201653Z 09008KT 10SM BKN050 28/17 A3022 RMK AO2 SLP238 T02830167

VFR

27.2°C / 16.1°C

[Daha fazla]
Rüzgar 80º 11kt
Görünürlük >10km
Hava -
Bulutlar Few Clouds 4800ft
Basınç 1024
Değiştir -
Ham KORL 201553Z 08011KT 10SM FEW048 27/16 A3024 RMK AO2 SLP243 T02720161

VFR

26.1°C / 15.6°C

[Daha fazla]
Rüzgar 100º 9kt
Görünürlük >10km
Hava -
Bulutlar Clear
Basınç 1024
Değiştir -
Ham KORL 201453Z 10009KT 10SM CLR 26/16 A3024 RMK AO2 SLP244 T02610156 51012

VFR

25°C / 17.2°C

[Daha fazla]
Rüzgar 80º 6kt
Görünürlük >10km
Hava -
Bulutlar Clear
Basınç 1024
Değiştir -
Ham KORL 201353Z 08006KT 10SM CLR 25/17 A3023 RMK AO2 SLP240 T02500172

VFR

21.7°C / 17.8°C

[Daha fazla]
Rüzgar 70º 3kt
Görünürlük >10km
Hava -
Bulutlar Clear
Basınç 1023
Değiştir -
Ham KORL 201253Z 07003KT 10SM CLR 22/18 A3022 RMK AO2 SLP237 T02170178

VFR

18.3°C / 16.7°C

[Daha fazla]
Rüzgar 40º 3kt
Görünürlük >10km
Hava -
Bulutlar Clear
Basınç 1023
Değiştir -
Ham KORL 201153Z 04003KT 10SM CLR 18/17 A3021 RMK AO2 SLP231 T01830167 10206 20172 53013

VFR

19.4°C / 16.7°C

[Daha fazla]
Rüzgar 20º 3kt
Görünürlük >10km
Hava -
Bulutlar Clear
Basınç 1022
Değiştir -
Ham KORL 201053Z 02003KT 10SM CLR 19/17 A3019 RMK AO2 SLP226 T01940167

VFR

17.8°C / 16.1°C

[Daha fazla]
Rüzgar variable 0kt
Görünürlük >10km
Hava -
Bulutlar Clear
Basınç 1022
Değiştir -
Ham KORL 200953Z AUTO 00000KT 10SM CLR 18/16 A3017 RMK AO2 SLP221 T01780161

VFR

18.3°C / 16.1°C

[Daha fazla]
Rüzgar variable 0kt
Görünürlük >10km
Hava -
Bulutlar Clear
Basınç 1021
Değiştir -
Ham KORL 200853Z AUTO 00000KT 10SM CLR 18/16 A3017 RMK AO2 SLP219 T01830161 56008

VFR

19.4°C / 15.6°C

[Daha fazla]
Rüzgar 30º 3kt
Görünürlük >10km
Hava -
Bulutlar Clear
Basınç 1021
Değiştir -
Ham KORL 200753Z AUTO 03003KT 10SM CLR 19/16 A3017 RMK AO2 SLP219 T01940156

VFR

20°C / 15.6°C

[Daha fazla]
Rüzgar 60º 4kt
Görünürlük >10km
Hava -
Bulutlar Clear
Basınç 1022
Değiştir -
Ham KORL 200653Z AUTO 06004KT 10SM CLR 20/16 A3018 RMK AO2 SLP222 T02000156

VFR

20.6°C / 15.6°C

[Daha fazla]
Rüzgar 50º 4kt
Görünürlük >10km
Hava -
Bulutlar Clear
Basınç 1022
Değiştir -
Ham KORL 200553Z AUTO 05004KT 10SM CLR 21/16 A3019 RMK AO2 SLP227 T02060156 10228 20200 58004

VFR

20.6°C / 16.1°C

[Daha fazla]
Rüzgar variable 0kt
Görünürlük >10km
Hava -
Bulutlar Few Clouds 5000ft
Basınç 1023
Değiştir -
Ham KORL 200453Z AUTO 00000KT 10SM FEW050 21/16 A3020 RMK AO2 SLP231 T02060161 402780189

VFR

21.1°C / 16.7°C

[Daha fazla]
Rüzgar 30º 3kt
Görünürlük >10km
Hava -
Bulutlar Clear
Basınç 1023
Değiştir -
Ham KORL 200353Z AUTO 03003KT 10SM CLR 21/17 A3021 RMK AO2 SLP234 T02110167

VFR

20.6°C / 16.1°C

[Daha fazla]
Rüzgar 50º 5kt
Görünürlük >10km
Hava -
Bulutlar Few Clouds 4600ft
Basınç 1023
Değiştir -
Ham KORL 200253Z AUTO 05005KT 10SM FEW046 21/16 A3020 RMK AO2 SLP231 T02060161 51012

VFR

20.6°C / 15.6°C

[Daha fazla]
Rüzgar 60º 5kt
Görünürlük >10km
Hava -
Bulutlar Clear
Basınç 1022
Değiştir -
Ham KORL 200153Z 06005KT 10SM CLR 21/16 A3020 RMK AO2 SLP228 T02060156

VFR

21.7°C / 15.6°C

[Daha fazla]
Rüzgar 60º 5kt
Görünürlük >10km
Hava -
Bulutlar Clear
Basınç 1022
Değiştir -
Ham KORL 200053Z 06005KT 10SM CLR 22/16 A3019 RMK AO2 SLP225 T02170156

VFR

22.8°C / 15.6°C

[Daha fazla]
Rüzgar 70º 7kt
Görünürlük >10km
Hava -
Bulutlar Clear
Basınç 1021
Değiştir -
Ham KORL 192353Z 07007KT 10SM CLR 23/16 A3017 RMK AO2 SLP219 T02280156 10278 20228 53013

VFR

23.9°C / 15.6°C

[Daha fazla]
Rüzgar 70º 9kt
Görünürlük >10km
Hava -
Bulutlar Clear
Basınç 1021
Değiştir -
Ham KORL 192253Z 07009KT 10SM CLR 24/16 A3015 RMK AO2 SLP212 T02390156

VFR

25°C / 15.6°C

[Daha fazla]
Rüzgar 70º 12kt
Görünürlük >10km
Hava -
Bulutlar Few Clouds 4800ft
Basınç 1020
Değiştir -
Ham KORL 192153Z 07012KT 10SM FEW048 25/16 A3013 RMK AO2 SLP207 T02500156

Orlando için şu anki uydu görüntüleri, Amerika Birleşik Devletleri

Konum işaretleyici Orlando üzerine yerleştirilir. [Daha fazla]

Gerçek zamanlı uydu görüntüsü gündüz süresince görülür ışığı gece süresince kızılötesi ışınım ile birleştirir. Gece kızılötesi ışınım sıcaklık farklarını algılayabildiğinden dolayı görüntü karanlık değildir. Ancak düşük bulutları ve sisi yer sıcaklığından ayırmak zordur ve bu nedenle gece boyunca neredeyse görünmez olabilirler. Avrupa için Meteosat uydu görüntüleri gerçek zamanlı olarak her 5 dakikada bir güncellenir. GOES-16/GOES-17 (Kuzey ve Güney Amerika) ve Himawari (Asya) görüntüleri her 10 dakikada bir güncellenir.

Orlando için radar ve yağış nowcast

çiseleyen yağmur
Hafif
Orta
Ağır
Çok ağır
Selamlamak

Konum işaretleyicisi Orlando üzerine yerleştirilir. Bu animasyon son saat içerisindeki yağış radarını ve 1h tahminini gösterir. Radar için çiseleyen yağmur veya hafif kar yağışı görünmez olabilir. Yağış yoğunluğu açık maviden turuncuya değişen renk kodludur.